Current weather by "City, St" or "zip code"  
 
Advertise Here

Current Conditions: Phoenix, Phoenix-Deer Valley Municipal Airport, AZ

Fair


93.0 F

Last Updated on Sep 16 2021, 7:53 pm MST
Humidity: 18%
Wind Speed: N 0.0 mph
Barometer 29.76 in
Dewpoint: 44.1 F
Visibility: 10.00 mi
Precip: --
Heat Index: 89 F
Wind Chill: NA
Current conditions at:

Phoenix, Phoenix-Deer Valley Municipal Airport, AZ (KDVT)

Lat: 33.69026 Lon: 112.06618

Local Radar Image active severe weather and emergency alerts image image weather storm and storm spotter reports image weather observation monitoring service image
Local
Radar
Active
Alerts
Storm Reports Obs
Monitoring

Sign-up For Email & Text Message Weather Alert Notification Services



Advertise Here

Observation History for Phoenix, Phoenix-Deer Valley Municipal Airport, AZ


Time Wind
(mph)
Vis
(mi)
Weather Precip (in) Temperature (F) Relative
Humidity
Wind
Chill
(F)
Heat
Index
(F)
Pressure
Air Dwpt altimeter
(in)
sea level
(mb)
Rmks
7:53 pm MST N 0.0 10.00 Fair -- 93.0 44.1 18% NA 89 29.76 1005.1
6:53 pm MST N 0.0 10.00 Fair -- 97.0 43.0 16% NA 93 29.74 1004.5
5:53 pm MST W 6.9 G 17.3 10.00 Fair -- 99.0 43.0 15% NA 95 29.74 1004.4
4:53 pm MST W 12.7 10.00 Fair -- 101.0 43.0 14% NA 97 29.75 1004.4
3:53 pm MST SW 10.4 10.00 Fair -- 100.0 43.0 14% NA 96 29.75 1004.6
2:53 pm MST SW 9.2 10.00 Fair -- 100.0 43.0 14% NA 96 29.76 1005.0
1:53 pm MST S 6.9 10.00 Fair -- 99.0 43.0 15% NA 95 29.78 1005.8
12:53 pm MST SE 8.1 10.00 Fair -- 98.0 42.1 15% NA 94 29.81 1006.6
11:53 am MST 3.5 10.00 Fair -- 96.0 41.0 15% NA 92 29.82 1007.1
10:53 am MST S 5.8 10.00 Fair -- 93.0 42.1 17% NA 89 29.84 1007.6
9:53 am MST SE 6.9 10.00 Fair -- 91.0 43.0 19% NA 87 29.84 1007.8
8:53 am MST N 0.0 10.00 Fair -- 88.0 42.1 20% NA 85 29.83 1007.2
7:53 am MST N 0.0 10.00 Fair -- 83.0 43.0 24% NA 81 29.82 1007.1
6:53 am MST N 0.0 10.00 Fair -- 77.0 43.0 30% NA NA 29.81 1006.8
5:53 am MST N 0.0 10.00 Fair -- 75.0 43.0 32% NA NA 29.79 1006.2
4:53 am MST E 5.8 10.00 Fair -- 79.0 42.1 27% NA NA 29.78 1005.6
3:53 am MST N 0.0 10.00 Fair -- 76.0 43.0 31% NA NA 29.78 1005.6
2:53 am MST NE 3.5 9.00 Fair -- 77.0 43.0 30% NA NA 29.78 1005.6
1:53 am MST N 0.0 10.00 Fair -- 77.0 44.1 31% NA NA 29.78 1005.7
12:53 am MST E 3.5 10.00 Fair -- 79.0 43.0 28% NA NA 29.79 1005.8
11:53 pm MST E 3.5 10.00 Fair -- 80.0 43.0 27% NA 79 29.79 1006.1

Regional Weather Observation


Glendale, Glendale Municipal Airport, AZ (KGEU)

Clear
93.0 F

Luke Air Force Base / Phoenix, AZ (KLUF)

Fair
94.0 F

Phoenix, Phoenix Sky Harbor International Airport, AZ (KPHX)

A Few Clouds
100.0 F

Goodyear Municipal, AZ (KGYR)

A Few Clouds
97.0 F

Buckeye Municipal Airport, AZ (KBXK)

Haze
73.0 F

Scottsdale Airport, AZ (KSDL)

Fair
94.0 F
Advertise Here


Advertise Here